QPF
0.03 0.03 0.07 0.06 0.03 0.03 0.03 0.03 0.04 0.04 0.04 0.04 0.03 0.03 0.01 0.02 0.04 0.04 0.03 0.03 0.04 0.03 0.02 0.02 0.02 0.02 0.02 0.03 0.03 0.04 0.04 0.04 0.04 0.05 0.06 0.06 0.05 0.04 0.05 0.05 0.05 0.03 0.05
0.03 0.03 0.05 0.05 0.03 0.06 0.04 0.04 0.06 0.07 0.05 0.03 0.02 0.02 0.02 0.02 0.04 0.06 0.06 0.05 0.05 0.03 0.02 0.02 0.03 0.02 0.02 0.03 0.03 0.04 0.05 0.05 0.05 0.04 0.03 0.03 0.04 0.05 0.06 0.05 0.05 0.05 0.08
0.01 0.02 0.02 0.04 0.04 0.11 0.07 0.06 0.11 0.13 0.07 0.04 0.02 0.02 0.03 0.02 0.02 0.03 0.04 0.05 0.06 0.04 0.02 0.03 0.02 0.02 0.02 0.02 0.03 0.04 0.04 0.05 0.04 0.04 0.03 0.03 0.04 0.05 0.06 0.07 0.06 0.08 0.08
0.01 0.01 0.01 0.03 0.04 0.11 0.17 0.18 0.18 0.13 0.07 0.04 0.02 0.02 0.02 0.01 0.01 0.01 0.02 0.04 0.05 0.04 0.04 0.05 0.03 0.02 0.02 0.02 0.02 0.02 0.04 0.04 0.03 0.03 0.02 0.03 0.03 0.07 0.07 0.10 0.11 0.09 0.07
0.01 0.01 0.02 0.04 0.04 0.06 0.08 0.11 0.10 0.07 0.05 0.03 0.03 0.02 0.02 0.02 0.02 0.01 0.02 0.03 0.05 0.04 0.04 0.06 0.04 0.03 0.02 0.02 0.01 0.02 0.03 0.04 0.04 0.02 0.02 0.04 0.05 0.10 0.12 0.14 0.10 0.08 0.07
0.01 0.01 0.01 0.05 0.04 0.04 0.04 0.04 0.04 0.03 0.03 0.03 0.04 0.04 0.03 0.02 0.02 0.02 0.02 0.04 0.05 0.05 0.05 0.06 0.04 0.04 0.04 0.03 0.03 0.04 0.05 0.04 0.04 0.02 0.01 0.02 0.03 0.06 0.06 0.09 0.06 0.07 0.06
0.02 0.02 0.01 0.04 0.04 0.04 0.04 0.03 0.03 0.03 0.02 0.02 0.05 0.06 0.04 0.03 0.02 0.02 0.03 0.04 0.04 0.05 0.06 0.08 0.05 0.04 0.07 0.08 0.08 0.07 0.05 0.04 0.02 0.02 0.01 0.02 0.06 0.07 0.06 0.05 0.06 0.07 0.06
0.01 0.01 0.01 0.02 0.03 0.04 0.03 0.02 0.02 0.02 0.02 0.02 0.04 0.07 0.06 0.04 0.02 0.01 0.01 0.02 0.03 0.03 0.04 0.06 0.05 0.04 0.05 0.07 0.09 0.09 0.08 0.06 0.03 0.02 0.03 0.04 0.09 0.10 0.07 0.07 0.06 0.07 0.06
0.00 0.00 0.01 0.02 0.03 0.04 0.02 0.02 0.02 0.03 0.03 0.02 0.03 0.05 0.05 0.03 0.02 0.02 0.02 0.02 0.02 0.02 0.02 0.03 0.04 0.05 0.05 0.06 0.07 0.08 0.07 0.05 0.03 0.03 0.03 0.05 0.10 0.10 0.07 0.07 0.06 0.05 0.05
0.01 0.01 0.01 0.01 0.02 0.02 0.01 0.03 0.02 0.04 0.03 0.02 0.02 0.02 0.03 0.03 0.03 0.02 0.02 0.02 0.02 0.02 0.02 0.02 0.03 0.04 0.06 0.07 0.06 0.06 0.04 0.04 0.02 0.02 0.02 0.05 0.08 0.09 0.06 0.06 0.06 0.05 0.04
0.02 0.02 0.02 0.02 0.01 0.01 0.01 0.02 0.02 0.01 0.01 0.01 0.01 0.01 0.01 0.02 0.01 0.02 0.02 0.02 0.01 0.02 0.02 0.03 0.04 0.04 0.05 0.05 0.06 0.06 0.04 0.03 0.02 0.01 0.04 0.08 0.08 0.08 0.06 0.04 0.05 0.06 0.03
0.02 0.02 0.02 0.02 0.03 0.03 0.02 0.02 0.01 0.01 0.00 0.00 0.00 0.01 0.01 0.01 0.01 0.02 0.01 0.02 0.02 0.02 0.03 0.04 0.04 0.04 0.02 0.02 0.03 0.04 0.04 0.02 0.01 0.01 0.06 0.08 0.06 0.05 0.04 0.03 0.04 0.04 0.05
0.02 0.02 0.02 0.02 0.02 0.02 0.01 0.01 0.01 0.01 0.01 0.01 0.00 0.01 0.00 0.00 0.01 0.01 0.01 0.01 0.02 0.02 0.02 0.02 0.02 0.01 0.01 0.00 0.01 0.03 0.03 0.01 0.01 0.01 0.05 0.07 0.05 0.05 0.05 0.04 0.04 0.03 0.04
0.02 0.02 0.02 0.02 0.03 0.03 0.02 0.02 0.02 0.01 0.01 0.01 0.01 0.02 0.02 0.01 0.02 0.02 0.01 0.01 0.02 0.01 0.01 0.01 0.01 0.01 0.01 0.01 0.02 0.02 0.02 0.01 0.01 0.01 0.04 0.07 0.08 0.09 0.08 0.06 0.04 0.04 0.03
0.03 0.03 0.03 0.04 0.04 0.04 0.04 0.04 0.04 0.02 0.01 0.01 0.01 0.02 0.02 0.02 0.02 0.02 0.02 0.01 0.02 0.02 0.02 0.03 0.03 0.02 0.03 0.03 0.02 0.02 0.01 0.01 0.00 0.01 0.02 0.05 0.08 0.09 0.08 0.05 0.05 0.06 0.04
0.05 0.05 0.04 0.04 0.04 0.03 0.03 0.04 0.03 0.02 0.01 0.01 0.01 0.02 0.01 0.01 0.01 0.02 0.02 0.01 0.02 0.03 0.02 0.03 0.04 0.04 0.05 0.04 0.03 0.02 0.01 0.00 0.00 0.00 0.00 0.02 0.03 0.04 0.04 0.05 0.05 0.05 0.04
0.05 0.06 0.06 0.07 0.05 0.04 0.03 0.03 0.03 0.02 0.01 0.01 0.01 0.02 0.02 0.01 0.02 0.02 0.03 0.02 0.03 0.03 0.02 0.02 0.03 0.03 0.04 0.03 0.02 0.02 0.02 0.01 0.00 0.00 0.00 0.00 0.01 0.01 0.02 0.03 0.04 0.04 0.05
0.06 0.06 0.06 0.06 0.05 0.03 0.02 0.02 0.02 0.02 0.01 0.01 0.01 0.01 0.01 0.02 0.02 0.02 0.02 0.02 0.03 0.03 0.02 0.01 0.00 0.01 0.01 0.01 0.01 0.01 0.01 0.01 0.00 0.00 0.00 0.00 0.00 0.00 0.01 0.03 0.04 0.06 0.05
0.08 0.06 0.06 0.07 0.05 0.04 0.03 0.03 0.02 0.02 0.01 0.01 0.01 0.01 0.01 0.01 0.02 0.02 0.01 0.01 0.02 0.01 0.01 0.01 0.00 0.00 0.01 0.01 0.01 0.01 0.01 0.00 0.00 0.01 0.01 0.01 0.00 0.00 0.00 0.01 0.03 0.04 0.06
0.05 0.05 0.06 0.06 0.05 0.06 0.04 0.04 0.04 0.03 0.01 0.00 0.01 0.02 0.01 0.01 0.01 0.01 0.01 0.00 0.01 0.00 0.00 0.00 0.01 0.01 0.01 0.01 0.01 0.01 0.01 0.00 0.00 0.01 0.01 0.01 0.01 0.01 0.01 0.01 0.01 0.02 0.06
0.04 0.03 0.04 0.05 0.06 0.07 0.05 0.05 0.04 0.04 0.02 0.01 0.01 0.01 0.01 0.01 0.01 0.01 0.01 0.01 0.00 0.00 0.01 0.01 0.01 0.01 0.01 0.02 0.02 0.02 0.01 0.01 0.01 0.01 0.01 0.02 0.01 0.01 0.01 0.01 0.01 0.01 0.04
0.03 0.03 0.05 0.06 0.08 0.08 0.06 0.06 0.05 0.04 0.02 0.02 0.01 0.01 0.01 0.01 0.01 0.01 0.01 0.01 0.01 0.01 0.01 0.01 0.01 0.01 0.01 0.01 0.01 0.02 0.01 0.01 0.01 0.01 0.01 0.01 0.02 0.02 0.02 0.02 0.01 0.01 0.03
0.02 0.02 0.03 0.04 0.04 0.06 0.08 0.09 0.08 0.06 0.06 0.04 0.02 0.02 0.02 0.01 0.01 0.01 0.01 0.00 0.01 0.01 0.01 0.01 0.01 0.01 0.01 0.01 0.02 0.01 0.01 0.01 0.02 0.02 0.02 0.03 0.03 0.02 0.02 0.02 0.01 0.01 0.02
0.04 0.04 0.03 0.03 0.03 0.05 0.06 0.10 0.11 0.10 0.12 0.10 0.05 0.03 0.04 0.02 0.01 0.01 0.00 0.00 0.00 0.00 0.00 0.01 0.01 0.02 0.01 0.02 0.02 0.01 0.01 0.01 0.02 0.03 0.04 0.05 0.04 0.03 0.03 0.03 0.02 0.01 0.01
0.05 0.05 0.04 0.04 0.05 0.05 0.05 0.07 0.09 0.10 0.11 0.08 0.06 0.06 0.07 0.05 0.03 0.02 0.00 0.00 0.00 0.01 0.01 0.01 0.01 0.02 0.01 0.01 0.02 0.03 0.02 0.01 0.01 0.02 0.04 0.05 0.06 0.06 0.04 0.04 0.03 0.02 0.01
0.05 0.05 0.04 0.03 0.04 0.04 0.06 0.08 0.09 0.09 0.08 0.06 0.05 0.05 0.07 0.09 0.08 0.06 0.04 0.01 0.00 0.01 0.01 0.01 0.02 0.01 0.01 0.01 0.01 0.03 0.03 0.01 0.01 0.02 0.02 0.04 0.06 0.07 0.06 0.05 0.03 0.02 0.02
MSLP
1013.08 1012.52 1012.10 1011.88 1011.85 1011.96 1012.14 1012.31 1012.40 1012.40 1012.30 1012.15 1012.00 1011.90 1011.88 1011.93 1012.03 1012.15 1012.24 1012.28 1012.25 1012.18 1012.09 1012.00 1011.95 1011.94 1011.96 1012.00 1012.04 1012.07 1012.07 1012.04 1012.01 1011.97 1011.95 1011.94 1011.92 1011.90 1011.85 1011.76 1011.65 1011.52 1011.40
1013.04 1012.52 1012.14 1011.97 1011.98 1012.11 1012.30 1012.45 1012.51 1012.47 1012.35 1012.20 1012.06 1011.99 1012.01 1012.10 1012.24 1012.39 1012.49 1012.54 1012.52 1012.45 1012.37 1012.29 1012.24 1012.22 1012.23 1012.26 1012.27 1012.28 1012.26 1012.23 1012.20 1012.18 1012.19 1012.19 1012.20 1012.18 1012.12 1012.03 1011.90 1011.75 1011.61
1012.93 1012.46 1012.14 1012.03 1012.08 1012.25 1012.44 1012.59 1012.64 1012.58 1012.45 1012.29 1012.17 1012.12 1012.16 1012.27 1012.43 1012.58 1012.68 1012.72 1012.70 1012.64 1012.55 1012.48 1012.44 1012.43 1012.44 1012.45 1012.46 1012.45 1012.42 1012.40 1012.39 1012.40 1012.43 1012.47 1012.49 1012.49 1012.44 1012.34 1012.20 1012.05 1011.91
1012.77 1012.36 1012.12 1012.07 1012.18 1012.38 1012.59 1012.73 1012.77 1012.70 1012.56 1012.40 1012.29 1012.25 1012.30 1012.41 1012.56 1012.69 1012.78 1012.81 1012.78 1012.72 1012.65 1012.60 1012.58 1012.59 1012.61 1012.62 1012.62 1012.61 1012.59 1012.57 1012.58 1012.63 1012.69 1012.76 1012.81 1012.82 1012.78 1012.68 1012.55 1012.40 1012.26
1012.59 1012.26 1012.10 1012.12 1012.29 1012.52 1012.74 1012.88 1012.90 1012.82 1012.67 1012.51 1012.40 1012.36 1012.41 1012.51 1012.64 1012.76 1012.82 1012.83 1012.80 1012.75 1012.70 1012.68 1012.69 1012.72 1012.76 1012.79 1012.80 1012.79 1012.78 1012.78 1012.81 1012.88 1012.98 1013.07 1013.15 1013.17 1013.13 1013.04 1012.91 1012.76 1012.64
1012.45 1012.20 1012.11 1012.20 1012.40 1012.66 1012.87 1013.00 1013.00 1012.90 1012.74 1012.59 1012.48 1012.45 1012.49 1012.59 1012.70 1012.80 1012.84 1012.84 1012.81 1012.78 1012.76 1012.78 1012.83 1012.89 1012.96 1013.00 1013.02 1013.02 1013.01 1013.03 1013.08 1013.16 1013.28 1013.39 1013.48 1013.50 1013.47 1013.37 1013.24 1013.11 1013.00
1012.36 1012.18 1012.16 1012.30 1012.54 1012.79 1012.99 1013.08 1013.06 1012.94 1012.78 1012.63 1012.54 1012.53 1012.58 1012.68 1012.79 1012.88 1012.91 1012.91 1012.89 1012.88 1012.89 1012.94 1013.03 1013.12 1013.21 1013.27 1013.30 1013.30 1013.30 1013.32 1013.37 1013.47 1013.59 1013.70 1013.78 1013.81 1013.77 1013.67 1013.53 1013.40 1013.30
1012.33 1012.22 1012.26 1012.44 1012.68 1012.92 1013.09 1013.14 1013.09 1012.95 1012.80 1012.67 1012.60 1012.63 1012.72 1012.84 1012.96 1013.05 1013.09 1013.09 1013.08 1013.09 1013.13 1013.21 1013.32 1013.44 1013.54 1013.61 1013.64 1013.64 1013.63 1013.64 1013.69 1013.77 1013.88 1013.99 1014.06 1014.07 1014.01 1013.90 1013.76 1013.63 1013.53
1012.34 1012.29 1012.39 1012.59 1012.83 1013.04 1013.17 1013.18 1013.10 1012.96 1012.81 1012.72 1012.71 1012.79 1012.93 1013.09 1013.24 1013.35 1013.40 1013.41 1013.41 1013.42 1013.48 1013.57 1013.70 1013.83 1013.94 1014.00 1014.02 1014.01 1013.99 1013.99 1014.01 1014.08 1014.17 1014.26 1014.31 1014.30 1014.22 1014.10 1013.95 1013.81 1013.70
1012.35 1012.36 1012.50 1012.72 1012.95 1013.13 1013.22 1013.21 1013.11 1012.97 1012.86 1012.83 1012.88 1013.03 1013.24 1013.45 1013.64 1013.76 1013.83 1013.84 1013.84 1013.85 1013.91 1014.00 1014.13 1014.26 1014.36 1014.42 1014.44 1014.41 1014.37 1014.35 1014.35 1014.39 1014.46 1014.52 1014.54 1014.51 1014.43 1014.29 1014.13 1013.97 1013.85
1012.34 1012.40 1012.58 1012.81 1013.04 1013.20 1013.26 1013.22 1013.12 1013.02 1012.96 1012.99 1013.12 1013.35 1013.62 1013.88 1014.11 1014.26 1014.32 1014.34 1014.33 1014.33 1014.37 1014.46 1014.57 1014.69 1014.80 1014.85 1014.86 1014.83 1014.77 1014.73 1014.71 1014.72 1014.76 1014.79 1014.79 1014.75 1014.65 1014.51 1014.34 1014.18 1014.04
1012.26 1012.39 1012.60 1012.84 1013.06 1013.21 1013.26 1013.23 1013.16 1013.09 1013.10 1013.20 1013.41 1013.70 1014.03 1014.35 1014.60 1014.76 1014.83 1014.83 1014.81 1014.80 1014.82 1014.89 1015.00 1015.12 1015.22 1015.28 1015.29 1015.26 1015.20 1015.14 1015.10 1015.09 1015.10 1015.10 1015.09 1015.03 1014.93 1014.79 1014.62 1014.46 1014.30
1012.13 1012.30 1012.55 1012.80 1013.02 1013.17 1013.23 1013.22 1013.19 1013.18 1013.25 1013.43 1013.70 1014.05 1014.43 1014.77 1015.03 1015.20 1015.27 1015.27 1015.24 1015.21 1015.23 1015.30 1015.40 1015.53 1015.64 1015.71 1015.74 1015.72 1015.67 1015.60 1015.55 1015.51 1015.49 1015.47 1015.44 1015.38 1015.28 1015.15 1015.00 1014.83 1014.67
1011.95 1012.16 1012.42 1012.69 1012.91 1013.07 1013.16 1013.19 1013.21 1013.27 1013.40 1013.64 1013.97 1014.35 1014.75 1015.10 1015.37 1015.54 1015.61 1015.61 1015.58 1015.56 1015.59 1015.66 1015.78 1015.93 1016.07 1016.17 1016.22 1016.23 1016.19 1016.12 1016.06 1016.00 1015.94 1015.90 1015.85 1015.78 1015.69 1015.58 1015.44 1015.29 1015.13
1011.74 1011.97 1012.24 1012.51 1012.74 1012.92 1013.05 1013.14 1013.22 1013.34 1013.54 1013.82 1014.17 1014.56 1014.96 1015.31 1015.58 1015.75 1015.83 1015.85 1015.84 1015.85 1015.91 1016.01 1016.17 1016.35 1016.52 1016.67 1016.76 1016.79 1016.77 1016.71 1016.63 1016.54 1016.45 1016.38 1016.30 1016.22 1016.14 1016.05 1015.94 1015.81 1015.67
1011.54 1011.76 1012.03 1012.29 1012.54 1012.75 1012.92 1013.07 1013.23 1013.41 1013.65 1013.95 1014.31 1014.69 1015.07 1015.40 1015.66 1015.84 1015.95 1016.01 1016.06 1016.12 1016.23 1016.38 1016.58 1016.80 1017.02 1017.21 1017.34 1017.40 1017.40 1017.35 1017.25 1017.13 1017.01 1016.89 1016.78 1016.69 1016.60 1016.53 1016.44 1016.35 1016.22
1011.37 1011.58 1011.82 1012.08 1012.33 1012.58 1012.81 1013.03 1013.25 1013.49 1013.76 1014.07 1014.40 1014.76 1015.10 1015.41 1015.67 1015.87 1016.03 1016.15 1016.27 1016.40 1016.57 1016.79 1017.04 1017.30 1017.56 1017.78 1017.94 1018.04 1018.05 1018.00 1017.89 1017.75 1017.59 1017.42 1017.28 1017.15 1017.06 1016.99 1016.93 1016.86 1016.77
1011.25 1011.43 1011.64 1011.89 1012.16 1012.45 1012.74 1013.03 1013.31 1013.60 1013.88 1014.18 1014.49 1014.80 1015.10 1015.39 1015.64 1015.88 1016.09 1016.29 1016.49 1016.71 1016.96 1017.23 1017.52 1017.81 1018.10 1018.35 1018.54 1018.65 1018.69 1018.65 1018.53 1018.37 1018.17 1017.97 1017.78 1017.62 1017.51 1017.43 1017.39 1017.34 1017.28
1011.17 1011.32 1011.52 1011.76 1012.05 1012.38 1012.73 1013.08 1013.43 1013.75 1014.05 1014.33 1014.60 1014.86 1015.12 1015.38 1015.64 1015.91 1016.18 1016.46 1016.75 1017.05 1017.36 1017.67 1017.99 1018.31 1018.60 1018.86 1019.07 1019.21 1019.27 1019.25 1019.14 1018.97 1018.75 1018.52 1018.30 1018.11 1017.96 1017.88 1017.83 1017.80 1017.77
1011.12 1011.26 1011.44 1011.69 1012.00 1012.38 1012.79 1013.21 1013.61 1013.96 1014.27 1014.53 1014.75 1014.96 1015.17 1015.41 1015.68 1015.98 1016.31 1016.67 1017.03 1017.39 1017.74 1018.08 1018.41 1018.72 1019.01 1019.27 1019.49 1019.66 1019.75 1019.76 1019.69 1019.54 1019.33 1019.08 1018.84 1018.62 1018.45 1018.34 1018.28 1018.25 1018.24
1011.09 1011.23 1011.41 1011.67 1012.01 1012.43 1012.90 1013.37 1013.82 1014.20 1014.51 1014.75 1014.93 1015.10 1015.27 1015.49 1015.76 1016.09 1016.47 1016.88 1017.30 1017.70 1018.07 1018.41 1018.72 1019.01 1019.28 1019.54 1019.77 1019.96 1020.10 1020.17 1020.16 1020.06 1019.88 1019.66 1019.41 1019.17 1018.98 1018.84 1018.75 1018.72 1018.70
1011.05 1011.20 1011.40 1011.67 1012.04 1012.50 1013.01 1013.54 1014.02 1014.44 1014.75 1014.97 1015.13 1015.26 1015.40 1015.60 1015.88 1016.23 1016.64 1017.08 1017.52 1017.94 1018.31 1018.63 1018.91 1019.16 1019.40 1019.64 1019.88 1020.12 1020.32 1020.46 1020.53 1020.51 1020.40 1020.21 1019.98 1019.75 1019.53 1019.36 1019.24 1019.18 1019.15
1010.98 1011.17 1011.38 1011.67 1012.06 1012.54 1013.09 1013.65 1014.17 1014.60 1014.92 1015.14 1015.29 1015.40 1015.53 1015.72 1016.00 1016.35 1016.78 1017.23 1017.68 1018.08 1018.43 1018.71 1018.94 1019.15 1019.36 1019.59 1019.84 1020.12 1020.38 1020.62 1020.78 1020.85 1020.83 1020.71 1020.52 1020.30 1020.07 1019.88 1019.72 1019.62 1019.56
1010.89 1011.11 1011.33 1011.63 1012.02 1012.52 1013.08 1013.66 1014.20 1014.65 1015.00 1015.23 1015.38 1015.50 1015.63 1015.82 1016.09 1016.44 1016.87 1017.32 1017.75 1018.13 1018.44 1018.68 1018.86 1019.02 1019.20 1019.41 1019.68 1019.99 1020.32 1020.64 1020.90 1021.07 1021.14 1021.10 1020.96 1020.77 1020.54 1020.33 1020.14 1020.00 1019.89
1010.77 1011.02 1011.25 1011.54 1011.92 1012.40 1012.96 1013.55 1014.10 1014.58 1014.95 1015.21 1015.38 1015.52 1015.66 1015.86 1016.14 1016.49 1016.90 1017.34 1017.74 1018.09 1018.36 1018.56 1018.70 1018.82 1018.97 1019.17 1019.44 1019.78 1020.16 1020.54 1020.88 1021.14 1021.29 1021.32 1021.25 1021.09 1020.88 1020.66 1020.44 1020.26 1020.11
1010.64 1010.90 1011.13 1011.40 1011.75 1012.21 1012.75 1013.32 1013.88 1014.38 1014.79 1015.08 1015.30 1015.47 1015.64 1015.86 1016.14 1016.49 1016.89 1017.30 1017.68 1018.00 1018.24 1018.40 1018.50 1018.60 1018.72 1018.91 1019.17 1019.52 1019.92 1020.34 1020.73 1021.05 1021.27 1021.36 1021.34 1021.23 1021.04 1020.82 1020.60 1020.39 1020.20
Thickness
5761 5764 5765 5766 5766 5767 5767 5767 5767 5767 5766 5767 5767 5767 5767 5767 5766 5766 5766 5766 5766 5766 5766 5766 5766 5766 5765 5765 5765 5765 5765 5765 5766 5766 5765 5765 5765 5765 5765 5765 5765 5765 5765
5763 5764 5765 5765 5765 5765 5767 5768 5767 5765 5764 5764 5765 5764 5765 5764 5764 5764 5763 5763 5763 5763 5763 5763 5763 5763 5763 5763 5763 5763 5763 5763 5763 5763 5763 5762 5763 5763 5762 5762 5762 5762 5763
5763 5763 5763 5763 5763 5764 5765 5765 5765 5763 5762 5762 5762 5762 5762 5762 5761 5761 5761 5760 5760 5760 5760 5759 5759 5760 5760 5760 5760 5760 5759 5760 5760 5760 5760 5760 5760 5760 5760 5760 5760 5760 5760
5762 5762 5761 5761 5761 5761 5761 5761 5761 5760 5760 5760 5760 5760 5760 5759 5759 5758 5758 5757 5757 5756 5756 5756 5756 5756 5756 5756 5756 5756 5757 5756 5756 5756 5757 5757 5757 5757 5757 5757 5757 5757 5757
5760 5759 5759 5759 5758 5758 5758 5757 5757 5757 5757 5757 5758 5759 5758 5757 5756 5755 5754 5754 5753 5753 5752 5752 5753 5753 5753 5753 5753 5753 5753 5753 5753 5753 5753 5754 5754 5754 5754 5754 5754 5754 5754
5757 5756 5756 5756 5755 5755 5755 5755 5754 5754 5754 5754 5755 5757 5755 5753 5752 5751 5750 5750 5749 5749 5749 5748 5749 5749 5749 5750 5749 5749 5749 5749 5749 5749 5749 5750 5750 5750 5750 5751 5751 5751 5751
5754 5754 5753 5753 5753 5752 5752 5752 5751 5751 5751 5751 5751 5752 5751 5749 5748 5747 5747 5746 5745 5745 5745 5745 5745 5746 5746 5746 5746 5746 5745 5745 5745 5745 5745 5746 5746 5747 5747 5747 5747 5747 5747
5752 5751 5750 5750 5750 5749 5749 5748 5748 5748 5747 5747 5747 5746 5745 5744 5744 5743 5743 5742 5741 5741 5741 5741 5741 5742 5742 5742 5742 5742 5741 5741 5741 5741 5741 5742 5743 5743 5743 5744 5743 5743 5743
5750 5748 5747 5747 5746 5746 5745 5745 5745 5744 5743 5743 5742 5742 5741 5740 5740 5739 5738 5738 5738 5738 5737 5737 5738 5738 5738 5738 5737 5737 5737 5736 5737 5737 5737 5738 5739 5739 5740 5740 5739 5739 5739
5746 5745 5744 5743 5743 5742 5742 5741 5741 5740 5739 5738 5738 5737 5736 5736 5735 5734 5734 5733 5734 5733 5733 5733 5734 5733 5734 5733 5733 5732 5732 5731 5732 5732 5733 5734 5734 5735 5735 5734 5734 5734 5734
5742 5742 5741 5740 5740 5739 5738 5737 5736 5736 5735 5734 5733 5732 5732 5731 5730 5730 5729 5729 5729 5729 5729 5729 5729 5729 5729 5729 5728 5727 5727 5727 5727 5728 5729 5729 5730 5730 5730 5729 5729 5729 5729
5737 5738 5738 5738 5737 5736 5735 5734 5732 5732 5731 5730 5729 5727 5727 5726 5726 5725 5725 5725 5724 5724 5724 5724 5725 5724 5724 5724 5723 5723 5722 5723 5723 5723 5724 5725 5725 5725 5725 5725 5725 5724 5724
5737 5737 5736 5736 5734 5733 5732 5731 5729 5728 5727 5726 5725 5723 5722 5721 5721 5720 5720 5720 5719 5720 5720 5719 5719 5719 5719 5718 5718 5718 5717 5718 5718 5718 5719 5720 5720 5721 5721 5720 5720 5719 5719
5735 5735 5735 5734 5732 5731 5730 5728 5726 5724 5723 5722 5721 5720 5718 5717 5716 5715 5715 5715 5715 5715 5715 5715 5715 5715 5714 5713 5713 5712 5712 5713 5713 5713 5714 5714 5715 5716 5716 5715 5715 5714 5714
5732 5732 5733 5732 5729 5728 5726 5725 5723 5721 5720 5719 5717 5716 5715 5713 5711 5711 5710 5710 5710 5711 5711 5711 5710 5710 5709 5708 5708 5708 5707 5708 5708 5709 5709 5709 5710 5711 5711 5710 5710 5709 5709
5730 5730 5731 5730 5728 5726 5724 5722 5720 5719 5717 5716 5714 5713 5711 5710 5708 5707 5706 5706 5706 5706 5707 5706 5706 5705 5704 5704 5703 5703 5703 5703 5703 5703 5703 5704 5704 5705 5705 5705 5704 5704 5703
5729 5729 5728 5728 5726 5723 5721 5720 5718 5716 5714 5713 5711 5709 5708 5706 5705 5704 5702 5702 5702 5702 5702 5702 5701 5701 5700 5699 5698 5698 5698 5698 5698 5698 5698 5698 5699 5699 5699 5699 5699 5698 5698
5727 5725 5725 5725 5722 5720 5718 5717 5715 5713 5711 5709 5708 5706 5704 5703 5702 5701 5699 5698 5698 5698 5698 5697 5696 5695 5694 5693 5693 5693 5693 5694 5694 5693 5693 5693 5693 5693 5693 5693 5693 5693 5692
5724 5723 5721 5720 5718 5716 5715 5713 5711 5709 5708 5706 5704 5703 5701 5700 5699 5697 5696 5695 5695 5694 5694 5694 5692 5691 5689 5688 5688 5688 5688 5688 5689 5689 5688 5688 5688 5688 5688 5688 5688 5687 5687
5722 5720 5718 5717 5715 5713 5710 5708 5706 5704 5703 5702 5701 5699 5698 5696 5695 5694 5692 5692 5691 5690 5689 5689 5687 5686 5685 5685 5686 5684 5683 5684 5684 5684 5684 5684 5683 5683 5683 5683 5682 5682 5682
5718 5716 5714 5712 5711 5709 5706 5703 5699 5697 5697 5696 5696 5695 5694 5693 5692 5690 5689 5688 5687 5686 5685 5685 5683 5682 5681 5681 5679 5677 5677 5678 5679 5679 5679 5679 5679 5678 5678 5678 5677 5677 5676
5713 5712 5710 5709 5708 5706 5704 5702 5699 5696 5693 5693 5692 5691 5690 5689 5688 5687 5686 5685 5684 5682 5681 5681 5680 5677 5677 5678 5675 5670 5666 5668 5671 5674 5674 5674 5674 5674 5673 5673 5672 5672 5671
5708 5707 5707 5705 5704 5703 5700 5698 5695 5691 5689 5687 5686 5685 5686 5686 5685 5684 5683 5682 5681 5680 5678 5677 5677 5675 5673 5673 5673 5669 5663 5659 5661 5666 5668 5669 5669 5669 5669 5668 5667 5667 5666
5705 5705 5704 5702 5700 5699 5697 5694 5691 5687 5683 5682 5682 5681 5682 5682 5681 5681 5680 5679 5678 5677 5676 5676 5675 5674 5672 5670 5670 5670 5668 5665 5660 5658 5661 5663 5665 5664 5664 5664 5663 5663 5662
5701 5700 5700 5698 5697 5696 5694 5692 5690 5686 5682 5680 5679 5678 5678 5677 5677 5677 5677 5676 5675 5674 5674 5674 5673 5672 5671 5669 5668 5667 5665 5663 5661 5657 5654 5656 5658 5660 5660 5660 5659 5658 5658
5696 5695 5694 5693 5692 5692 5691 5689 5687 5684 5681 5677 5675 5674 5673 5673 5673 5673 5674 5673 5672 5672 5672 5671 5671 5670 5669 5668 5666 5665 5663 5661 5658 5655 5652 5651 5651 5654 5656 5656 5655 5655 5654